| time (UTC) | temp C | wind direction | speed KPH | gust KPH | rain 1hr cm | rain 24hr cm | rain mn cm | humidity % | barometer mb |
| 20260509113939 | 13 | 360 | 0.0 | 3.2 | 0.00 | 0.05 | 0.00 | 52 | 1006.7 |
| 20260509113437 | 13 | 272 | 1.6 | 12.9 | 0.00 | 0.05 | 0.00 | 53 | 1006.7 |
| 20260509112936 | 13 | 324 | 3.2 | 6.4 | 0.00 | 0.05 | 0.00 | 53 | 1006.7 |
| 20260509112432 | 13 | 315 | 1.6 | 6.4 | 0.00 | 0.05 | 0.00 | 53 | 1006.7 |
| 20260509111928 | 13 | 321 | 3.2 | 3.2 | 0.00 | 0.05 | 0.00 | 53 | 1006.7 |
| 20260509111426 | 13 | 320 | 1.6 | 6.4 | 0.00 | 0.05 | 0.00 | 53 | 1006.4 |
| 20260509110912 | 13 | 321 | 1.6 | 8.0 | 0.00 | 0.05 | 0.00 | 53 | 1006.4 |
| 20260509110411 | 13 | 360 | 0.0 | 11.3 | 0.00 | 0.05 | 0.00 | 52 | 1006.4 |
| 20260509105901 | 13 | 315 | 1.6 | 3.2 | 0.00 | 0.05 | 0.00 | 52 | 1006.4 |
| 20260509105358 | 13 | 360 | 0.0 | 3.2 | 0.00 | 0.05 | 0.00 | 52 | 1006.4 |
| 20260509104855 | 13 | 270 | 0.0 | 0.0 | 0.00 | 0.05 | 0.00 | 52 | 1006.4 |
| 20260509104351 | 13 | 270 | 0.0 | 3.2 | 0.00 | 0.05 | 0.00 | 52 | 1006.4 |
| 20260509103838 | 12 | 304 | 1.6 | 3.2 | 0.00 | 0.05 | 0.00 | 52 | 1006.4 |
| 20260509103336 | 12 | 180 | 0.0 | 1.6 | 0.00 | 0.05 | 0.00 | 52 | 1006.4 |
| 20260509102833 | 12 | 360 | 0.0 | 3.2 | 0.00 | 0.05 | 0.00 | 53 | 1006.4 |
| 20260509102330 | 12 | 315 | 0.0 | 1.6 | 0.00 | 0.05 | 0.00 | 52 | 1006.4 |
| 20260509101827 | 12 | 315 | 0.0 | 6.4 | 0.00 | 0.05 | 0.00 | 52 | 1006.4 |
| 20260509101323 | 12 | 202 | 0.0 | 0.0 | 0.00 | 0.05 | 0.00 | 52 | 1006.4 |
| 20260509100808 | 12 | 270 | 0.0 | 1.6 | 0.00 | 0.05 | 0.00 | 52 | 1006.4 |
| 20260509100253 | 12 | 242 | 0.0 | 1.6 | 0.00 | 0.05 | 0.00 | 52 | 1006.4 |
| 20260509095739 | 12 | 180 | 0.0 | 0.0 | 0.00 | 0.05 | 0.00 | 52 | 1006.4 |
| 20260509095238 | 12 | 360 | 0.0 | 1.6 | 0.00 | 0.05 | 0.00 | 52 | 1006.4 |
| 20260509094736 | 12 | 177 | 0.0 | 1.6 | 0.00 | 0.05 | 0.00 | 52 | 1006.4 |
| 20260509094232 | 12 | 315 | 0.0 | 3.2 | 0.00 | 0.05 | 0.00 | 51 | 1006.4 |
| 20260509093729 | 12 | 360 | 0.0 | 1.6 | 0.00 | 0.05 | 0.00 | 51 | 1006.4 |
| 20260509093228 | 12 | 315 | 0.0 | 3.2 | 0.00 | 0.05 | 0.00 | 51 | 1006.4 |
| 20260509092716 | 12 | 360 | 0.0 | 1.6 | 0.00 | 0.05 | 0.00 | 51 | 1006.4 |
| 20260509092209 | 12 | 315 | 0.0 | 1.6 | 0.00 | 0.05 | 0.00 | 51 | 1006.4 |
| 20260509091703 | 12 | 225 | 0.0 | 3.2 | 0.00 | 0.05 | 0.00 | 50 | 1006.4 |
| 20260509091200 | 12 | 315 | 0.0 | 6.4 | 0.00 | 0.05 | 0.00 | 51 | 1006.7 |
| 20260509090658 | 12 | 357 | 4.8 | 8.0 | 0.00 | 0.05 | 0.00 | 51 | 1006.7 |
| 20260509090156 | 12 | 289 | 1.6 | 3.2 | 0.00 | 0.05 | 0.00 | 50 | 1006.7 |
| 20260509085726 | 12 | 247 | 0.0 | 3.2 | 0.00 | 0.03 | 0.00 | 50 | 1006.7 |
| 20260509085206 | 12 | 315 | 1.6 | 8.0 | 0.00 | 0.03 | 0.00 | 50 | 1006.7 |
| 20260509084701 | 12 | 310 | 1.6 | 3.2 | 0.00 | 0.03 | 0.00 | 50 | 1006.7 |
| 20260509084148 | 12 | 315 | 0.0 | 1.6 | 0.00 | 0.03 | 0.00 | 50 | 1006.7 |
| 20260509083646 | 12 | 270 | 1.6 | 3.2 | 0.00 | 0.03 | 0.00 | 50 | 1006.7 |
| 20260509083143 | 13 | 324 | 1.6 | 3.2 | 0.00 | 0.03 | 0.00 | 50 | 1006.7 |
| 20260509082637 | 13 | 301 | 0.0 | 1.6 | 0.00 | 0.03 | 0.00 | 50 | 1006.7 |
| 20260509082136 | 13 | 225 | 0.0 | 3.2 | 0.00 | 0.03 | 0.00 | 50 | 1007.1 |
| 20260509081631 | 13 | 296 | 0.0 | 6.4 | 0.00 | 0.03 | 0.00 | 50 | 1006.7 |
| 20260509081124 | 13 | 293 | 3.2 | 6.4 | 0.00 | 0.03 | 0.00 | 50 | 1006.7 |
| 20260509080602 | 13 | 329 | 3.2 | 6.4 | 0.00 | 0.03 | 0.00 | 50 | 1007.1 |
| 20260509080059 | 13 | 347 | 1.6 | 3.2 | 0.00 | 0.03 | 0.00 | 50 | 1007.1 |
| 20260509075556 | 13 | 315 | 1.6 | 6.4 | 0.00 | 0.03 | 0.00 | 50 | 1007.1 |
| 20260509075052 | 13 | 360 | 0.0 | 1.6 | 0.00 | 0.03 | 0.00 | 50 | 1007.1 |
| 20260509074527 | 13 | 180 | 0.0 | 3.2 | 0.00 | 0.03 | 0.00 | 49 | 1007.1 |
| 20260509074025 | 13 | 326 | 1.6 | 3.2 | 0.00 | 0.03 | 0.00 | 49 | 1007.1 |
| 20260509073518 | 13 | 337 | 0.0 | 0.0 | 0.00 | 0.03 | 0.00 | 49 | 1007.1 |
| 20260509073003 | 13 | 360 | 0.0 | 8.0 | 0.00 | 0.03 | 0.00 | 49 | 1007.1 |
| 20260509072459 | 13 | 315 | 0.0 | 3.2 | 0.00 | 0.03 | 0.00 | 49 | 1007.1 |
| 20260509071958 | 13 | 315 | 0.0 | 6.4 | 0.00 | 0.03 | 0.00 | 49 | 1007.1 |
| 20260509071455 | 13 | 225 | 0.0 | 1.6 | 0.00 | 0.03 | 0.00 | 48 | 1007.1 |
| 20260509070952 | 13 | 330 | 3.2 | 8.0 | 0.00 | 0.03 | 0.00 | 48 | 1007.1 |
| 20260509070451 | 13 | 159 | 1.6 | 8.0 | 0.00 | 0.03 | 0.00 | 49 | 1007.1 |
| 20260509065947 | 13 | 315 | 1.6 | 6.4 | 0.00 | 0.03 | 0.00 | 49 | 1007.1 |
| 20260509065443 | 13 | 310 | 3.2 | 3.2 | 0.00 | 0.03 | 0.00 | 49 | 1007.1 |
| 20260509064930 | 13 | 315 | 0.0 | 3.2 | 0.00 | 0.03 | 0.00 | 49 | 1007.1 |
| 20260509064428 | 13 | 308 | 4.8 | 8.0 | 0.00 | 0.03 | 0.00 | 49 | 1007.1 |
| 20260509063923 | 13 | 315 | 0.0 | 1.6 | 0.00 | 0.03 | 0.00 | 49 | 1007.1 |
| 20260509063417 | 13 | 315 | 0.0 | 3.2 | 0.00 | 0.03 | 0.00 | 49 | 1007.1 |
| 20260509062900 | 13 | 314 | 0.0 | 3.2 | 0.00 | 0.03 | 0.00 | 49 | 1007.1 |
| 20260509062356 | 13 | 270 | 0.0 | 6.4 | 0.00 | 0.03 | 0.00 | 49 | 1007.1 |
| 20260509061841 | 12 | 319 | 3.2 | 6.4 | 0.00 | 0.03 | 0.00 | 49 | 1007.1 |
| 20260509061336 | 13 | 315 | 0.0 | 1.6 | 0.00 | 0.03 | 0.00 | 49 | 1007.4 |
| 20260509060835 | 13 | 316 | 1.6 | 11.3 | 0.00 | 0.03 | 0.00 | 49 | 1007.4 |
| 20260509060324 | 12 | 333 | 3.2 | 6.4 | 0.00 | 0.03 | 0.00 | 50 | 1007.4 |
| 20260509055819 | 12 | 346 | 1.6 | 8.0 | 0.00 | 0.03 | 0.00 | 49 | 1007.4 |
| 20260509055318 | 12 | 347 | 3.2 | 6.4 | 0.00 | 0.03 | 0.00 | 50 | 1007.4 |
| 20260509054805 | 12 | 274 | 1.6 | 11.3 | 0.00 | 0.03 | 0.00 | 50 | 1007.4 |
| 20260509054304 | 12 | 207 | 0.0 | 3.2 | 0.00 | 0.03 | 0.00 | 50 | 1007.4 |
| 20260509053803 | 12 | 315 | 0.0 | 8.0 | 0.00 | 0.03 | 0.00 | 51 | 1007.4 |
| 20260509053242 | 12 | 272 | 0.0 | 6.4 | 0.00 | 0.03 | 0.00 | 51 | 1007.4 |
| 20260509052738 | 12 | 180 | 0.0 | 1.6 | 0.00 | 0.03 | 0.00 | 52 | 1007.4 |
| 20260509052230 | 12 | 225 | 0.0 | 0.0 | 0.00 | 0.03 | 0.00 | 52 | 1007.4 |
| 20260509051719 | 12 | 225 | 0.0 | 0.0 | 0.00 | 0.03 | 0.00 | 52 | 1007.4 |
| 20260509051216 | 12 | 225 | 0.0 | 0.0 | 0.00 | 0.03 | 0.00 | 52 | 1007.4 |
| 20260509050713 | 11 | 225 | 0.0 | 1.6 | 0.00 | 0.03 | 0.00 | 52 | 1007.4 |
| 20260509050158 | 11 | 337 | 0.0 | 0.0 | 0.00 | 0.03 | 0.00 | 52 | 1007.4 |
| 20260509045656 | 12 | 337 | 0.0 | 0.0 | 0.00 | 0.03 | 0.00 | 52 | 1007.4 |
| 20260509045147 | 12 | 337 | 0.0 | 0.0 | 0.00 | 0.03 | 0.00 | 52 | 1007.4 |
| 20260509044642 | 12 | 337 | 0.0 | 0.0 | 0.00 | 0.03 | 0.00 | 52 | 1007.4 |
| 20260509044128 | 12 | 292 | 0.0 | 1.6 | 0.00 | 0.03 | 0.00 | 52 | 1007.4 |
| 20260509043625 | 12 | 292 | 0.0 | 1.6 | 0.00 | 0.03 | 0.00 | 52 | 1007.4 |
| 20260509043122 | 12 | 292 | 0.0 | 0.0 | 0.00 | 0.03 | 0.00 | 52 | 1007.4 |
| 20260509042609 | 12 | 292 | 0.0 | 0.0 | 0.00 | 0.03 | 0.00 | 52 | 1007.4 |
| 20260509042106 | 12 | 360 | 0.0 | 0.0 | 0.00 | 0.03 | 0.00 | 52 | 1007.4 |
| 20260509041557 | 12 | 360 | 0.0 | 0.0 | 0.00 | 0.03 | 0.00 | 52 | 1007.7 |
| 20260509041049 | 12 | 360 | 0.0 | 0.0 | 0.00 | 0.03 | 0.00 | 51 | 1007.7 |
| 20260509040546 | 12 | 360 | 0.0 | 0.0 | 0.00 | 0.03 | 0.00 | 51 | 1007.7 |
| 20260509040043 | 12 | 360 | 0.0 | 0.0 | 0.00 | 0.03 | 0.00 | 51 | 1007.7 |
| 20260509035532 | 12 | 360 | 0.0 | 1.6 | 0.00 | 0.03 | 0.00 | 51 | 1007.7 |
| 20260509035027 | 12 | 360 | 0.0 | 0.0 | 0.00 | 0.03 | 0.00 | 51 | 1007.4 |
| 20260509034522 | 12 | 360 | 0.0 | 1.6 | 0.00 | 0.03 | 0.00 | 52 | 1007.7 |
| 20260509034014 | 12 | 270 | 0.0 | 1.6 | 0.00 | 0.03 | 0.00 | 51 | 1007.7 |
| 20260509033512 | 12 | 360 | 0.0 | 0.0 | 0.00 | 0.03 | 0.00 | 50 | 1007.7 |
| 20260509033010 | 12 | 360 | 0.0 | 0.0 | 0.00 | 0.03 | 0.00 | 51 | 1007.7 |
| 20260509032505 | 12 | 360 | 0.0 | 1.6 | 0.00 | 0.03 | 0.00 | 49 | 1007.7 |
| 20260509031953 | 12 | 360 | 0.0 | 1.6 | 0.00 | 0.03 | 0.00 | 49 | 1007.7 |
| 20260509031445 | 12 | 360 | 0.0 | 1.6 | 0.03 | 0.03 | 0.00 | 49 | 1007.7 |
| 20260509030939 | 12 | 360 | 0.0 | 1.6 | 0.03 | 0.03 | 0.00 | 49 | 1007.7 |
| 20260509030434 | 12 | 360 | 0.0 | 0.0 | 0.03 | 0.03 | 0.00 | 49 | 1007.7 |
| 20260509025931 | 12 | 360 | 0.0 | 0.0 | 0.03 | 0.03 | 0.00 | 48 | 1008.1 |
| 20260509025424 | 12 | 360 | 0.0 | 0.0 | 0.03 | 0.03 | 0.00 | 48 | 1008.1 |
| 20260509024906 | 13 | 360 | 0.0 | 0.0 | 0.03 | 0.03 | 0.00 | 48 | 1008.1 |
| 20260509024354 | 13 | 360 | 0.0 | 0.0 | 0.03 | 0.03 | 0.00 | 47 | 1008.1 |
| 20260509023725 | 13 | 360 | 0.0 | 0.0 | 0.03 | 0.03 | 0.00 | 47 | 1008.1 |
| 20260509023223 | 13 | 360 | 0.0 | 0.0 | 0.03 | 0.03 | 0.00 | 47 | 1008.1 |
| 20260509022714 | 13 | 360 | 0.0 | 0.0 | 0.03 | 0.03 | 0.00 | 46 | 1008.1 |
| 20260509022212 | 13 | 360 | 0.0 | 0.0 | 0.03 | 0.03 | 0.00 | 46 | 1007.7 |
| 20260509021706 | 13 | 360 | 0.0 | 0.0 | 0.00 | 0.00 | 0.00 | 45 | 1007.7 |
| 20260509021150 | 14 | 360 | 0.0 | 0.0 | 0.00 | 0.00 | 0.00 | 45 | 1007.7 |
| 20260509020648 | 14 | 360 | 0.0 | 0.0 | 0.00 | 0.00 | 0.00 | 44 | 1007.7 |
| 20260509020146 | 14 | 360 | 0.0 | 1.6 | 0.00 | 0.00 | 0.00 | 44 | 1007.7 |
| 20260509015635 | 15 | 360 | 0.0 | 0.0 | 0.00 | 0.00 | 0.00 | 43 | 1007.7 |
| 20260509015133 | 15 | 360 | 0.0 | 1.6 | 0.00 | 0.00 | 0.00 | 43 | 1007.7 |
| 20260509014630 | 15 | 111 | 0.0 | 0.0 | 0.00 | 0.00 | 0.00 | 42 | 1007.4 |
| 20260509014054 | 15 | 348 | 3.2 | 6.4 | 0.00 | 0.05 | 0.00 | 42 | 1007.4 |
| 20260509013553 | 15 | 360 | 0.0 | 3.2 | 0.03 | 0.05 | 0.00 | 41 | 1007.4 |
| 20260509013037 | 15 | 1 | 1.6 | 3.2 | 0.03 | 0.05 | 0.00 | 41 | 1007.4 |
| 20260509012536 | 15 | 360 | 0.0 | 1.6 | 0.03 | 0.05 | 0.00 | 41 | 1007.4 |
| 20260509012028 | 15 | 315 | 1.6 | 1.6 | 0.03 | 0.05 | 0.00 | 40 | 1007.4 |
| 20260509011518 | 15 | 45 | 0.0 | 1.6 | 0.03 | 0.05 | 0.00 | 40 | 1007.4 |